Location: Maddington
(51.2000°N, 1.9167°W)
Time: 11:14:20
(UTC+00:00)

NOSS 2-2 (E) - Pass Details

Date: 25 January 2021
Orbit: 465 x 1741 km, 63.3° (Epoch: 16 January)

Event Time Altitude Azimuth Distance (km) Brightness Sun altitude
Rises 20:00:08 0° 315° (NW) 3,073 7.9 -30.1°
Reaches altitude 10° 20:02:11 10° 315° (NW) 2,290 7.1 -30.4°
Enters shadow 20:06:39 69° 316° (NW) 978 4.5 -31.1°
